User: anonymous   Login
Location: Unspecified
(0.0000°N, 0.0000°E)
Time: 16:49:01
(UTC+00:00)
Language:

Meteor 2-21 - Orbit

View from above orbital plane
View from above orbital plane
View from above satellite
View from above satellite

Ground track
Ground track

The orbit data is extracted from the following two-line orbital elements,

1 22782U 93055A   18203.16894848 -.00000012  00000-0 -23921-4 0  9991
2 22782  82.5474  66.1718 0022987  31.5367  82.9077 13.83811358257014
Epoch (UTC): 22 July 2018 04:03:17
Eccentricity: 0.0022987
inclination: 82.5474°
perigee height: 933 km
apogee height: 967 km
right ascension of ascending node: 66.1718°
argument of perigee: 31.5367°
revolutions per day: 13.83811358
mean anomaly at epoch: 82.9077°
orbit number at epoch: 25701

The dashed part of the orbit path shows where the satellite is in the earth's shadow,  

DLR